Weather History for CYXH - February, 2013

Change the Weather History Date:

Sunday, February 3, 2013

  Actual Average Record
Temperature  
Mean Temperature -2 °F -  
Max Temperature 37 °F 31 °F 59 °F (2005)
Min Temperature -41 °F 10 °F -42 °F (2015)
Degree Days  
Heating Degree Days 67    
Moisture  
Dew Point 18 °F    
Average Humidity 73    
Maximum Humidity 93    
Minimum Humidity 46    
Precipitation  
Precipitation 0.00 in 0.01 in - ()
Sea Level Pressure  
Sea Level Pressure 29.89 in    
Wind  
Wind Speed 8 mph ()    
Max Wind Speed 15 mph    
Max Gust Speed -    
Visibility 11.3 miles    
Events      
Averages and records for this station are not official NWS values.
T = Trace of Precipitation, MM = Missing Value Source: Averaged Metar Reports

Daily Weather History Graph

Daily Weather History Graph

Search for Another Location

Airport or City:

Trip Planner

Search our weather history database for the weather conditions in past years. The results will help you decide how hot, cold, wet, or windy it might be!

Date:

Astronomy

Feb. 03, 2013 Rise Set
Actual Time 7:52 AM MST 5:21 PM MST
Civil Twilight 7:18 AM MST 5:55 PM MST
Nautical Twilight 6:39 AM MST 6:34 PM MST
Astronomical Twilight 6:02 AM MST 7:12 PM MST
Moon 1:26 AM MST (2/3) 10:56 AM MST (2/3)
Length of Visible Light 10h 37m
Length of Day
9h 28m
Waning Gibbous, 48% of the Moon is Illuminated
Feb 3
Waning Gibbous
Feb 10
New
Feb 17
First Quarter
Feb 25
Full
Mar 4
Last Quarter

Hourly Weather History & Observations

Time (MST) Temp. Windchill Dew Point Humidity Pressure Visibility Wind Dir Wind Speed Gust Speed Precip Events Conditions
12:00 AM 33.8 °F 25.8 °F 28.4 °F 81% 30.01 in 9.0 mi SSW 10.4 mph - N/A   Overcast
1:00 AM 30.2 °F 22.6 °F 26.6 °F 86% 29.98 in 9.0 mi SW 8.1 mph - N/A   Mostly Cloudy
2:00 AM 28.4 °F 19.7 °F 26.6 °F 93% 29.94 in 9.0 mi SW 9.2 mph - N/A   Overcast
3:00 AM 33.8 °F 27.0 °F 26.6 °F 75% 29.90 in 9.0 mi SW 8.1 mph - N/A   Overcast
4:00 AM 33.8 °F 27.0 °F 26.6 °F 75% 29.86 in 9.0 mi WSW 8.1 mph - N/A   Overcast
6:00 AM 33.8 °F 25.3 °F 26.6 °F 75% 29.90 in 15.0 mi West 11.5 mph - N/A   Overcast
7:00 AM 33.8 °F 25.8 °F 23.0 °F 65% 29.91 in 15.0 mi WNW 10.4 mph - N/A   Mostly Cloudy
8:00 AM 33.8 °F 27.0 °F 24.8 °F 70% 29.95 in 30.0 mi NW 8.1 mph - N/A   Mostly Cloudy
9:00 AM 33.8 °F - 24.8 °F 70% 29.96 in 30.0 mi West 2.3 mph - N/A   Mostly Cloudy
10:00 AM 33.8 °F 27.7 °F 24.8 °F 70% 29.99 in 30.0 mi West 6.9 mph - N/A   Mostly Cloudy
11:00 AM -41 °F - -49 °F 46% 29.48 in - South 6.9 mph - -  
11:00 AM 37.4 °F 33.8 °F 26.6 °F 65% 29.99 in 30.0 mi WSW 4.6 mph - N/A   Mostly Cloudy
12:00 PM 39.2 °F 35.0 °F 26.6 °F 61% 29.99 in 30.0 mi West 5.8 mph - N/A   Mostly Cloudy
1:00 PM 39.2 °F 35.0 °F 28.4 °F 65% 29.99 in 30.0 mi SSW 5.8 mph - N/A   Mostly Cloudy
2:00 PM 39.2 °F 32.5 °F 30.2 °F 70% 29.98 in 30.0 mi SSW 10.4 mph - N/A   Mostly Cloudy
3:00 PM 39.2 °F 33.0 °F 30.2 °F 70% 29.96 in 30.0 mi SSW 9.2 mph - N/A   Mostly Cloudy
4:00 PM 41.0 °F 35.2 °F 30.2 °F 65% 29.95 in 30.0 mi SW 9.2 mph - N/A   Mostly Cloudy
5:00 PM -41 °F - -48 °F 48% 29.51 in - South 9.2 mph - -  
5:00 PM 37.4 °F 30.8 °F 30.2 °F 75% 29.94 in 30.0 mi SW 9.2 mph - N/A   Mostly Cloudy
6:00 PM 33.8 °F 25.8 °F 30.2 °F 87% 29.94 in 15.0 mi SSW 10.4 mph - N/A   Partly Cloudy
7:00 PM 30.2 °F 23.4 °F 26.6 °F 86% 29.94 in 15.0 mi SW 6.9 mph - N/A   Partly Cloudy
8:00 PM 28.4 °F 21.2 °F 26.6 °F 93% 29.92 in 15.0 mi SW 6.9 mph - N/A   Partly Cloudy
9:00 PM 28.4 °F 19.7 °F 24.8 °F 86% 29.90 in 9.0 mi SSW 9.2 mph - N/A   Partly Cloudy
10:00 PM 28.4 °F 20.4 °F 24.8 °F 86% 29.88 in 9.0 mi SSW 8.1 mph - N/A   Partly Cloudy
11:00 PM -41 °F - -48 °F 47% 29.56 in - South 15.0 mph - -  
11:00 PM 26.6 °F 20.0 °F 24.8 °F 93% 29.85 in 9.0 mi SW 5.8 mph - N/A   Scattered Clouds